Time,TemperatureF,DewpointF,PressureIn,WindDirection,WindDirectionDegrees,WindSpeedMPH,WindSpeedGustMPH,Humidity,HourlyPrecipIn,Conditions,Clouds,dailyrainin,SoftwareType,DateUTC
2013-03-20 00:02:00,53.0,21.0,29.87,East,95,2.0,9.0,28,0.00,,,0.00,,2013-03-20 05:02:00,
2013-03-20 00:12:00,53.0,21.0,29.87,East,95,2.0,9.0,28,0.00,,,0.00,,2013-03-20 05:12:00,
2013-03-20 00:23:00,53.0,21.0,29.87,East,95,2.0,9.0,28,0.00,,,0.00,,2013-03-20 05:23:00,
2013-03-20 00:32:00,51.0,27.0,29.90,East,80,2.0,10.0,39,0.00,,,0.00,,2013-03-20 05:32:00,
2013-03-20 00:43:00,51.0,27.0,29.90,East,80,2.0,10.0,39,0.00,,,0.00,,2013-03-20 05:43:00,
2013-03-20 00:53:00,51.0,27.0,29.90,East,80,2.0,10.0,39,0.00,,,0.00,,2013-03-20 05:53:00,
2013-03-20 01:02:00,49.0,28.0,29.92,ENE,73,2.0,12.0,44,0.00,,,0.00,,2013-03-20 06:02:00,
2013-03-20 01:12:00,49.0,28.0,29.92,ENE,73,2.0,12.0,44,0.00,,,0.00,,2013-03-20 06:12:00,
2013-03-20 01:22:00,49.0,28.0,29.92,ENE,73,2.0,12.0,44,0.00,,,0.00,,2013-03-20 06:22:00,
2013-03-20 01:32:00,47.0,29.0,29.95,ENE,68,4.0,12.0,50,0.00,,,0.00,,2013-03-20 06:32:00,
2013-03-20 01:43:00,47.0,29.0,29.95,ENE,68,4.0,12.0,50,0.00,,,0.00,,2013-03-20 06:43:00,
2013-03-20 01:53:00,47.0,29.0,29.95,ENE,68,4.0,12.0,50,0.00,,,0.00,,2013-03-20 06:53:00,
2013-03-20 02:02:00,47.0,29.0,29.95,ENE,68,4.0,12.0,50,0.00,,,0.00,,2013-03-20 07:02:00,
2013-03-20 03:22:00,37.0,28.0,30.03,SE,130,1.0,7.0,71,0.00,,,0.00,,2013-03-20 08:22:00,
2013-03-20 03:32:00,37.0,28.0,30.03,SE,130,1.0,7.0,71,0.00,,,0.00,,2013-03-20 08:32:00,
2013-03-20 03:42:00,37.0,28.0,30.03,SE,130,1.0,7.0,71,0.00,,,0.00,,2013-03-20 08:42:00,
2013-03-20 03:52:00,37.0,28.0,30.03,SE,130,1.0,7.0,71,0.00,,,0.00,,2013-03-20 08:52:00,
2013-03-20 04:02:00,37.0,28.0,30.03,SE,130,1.0,7.0,71,0.00,,,0.00,,2013-03-20 09:02:00,
2013-03-20 04:22:00,31.0,24.0,30.06,SE,130,0.0,2.0,76,0.00,,,0.00,,2013-03-20 09:22:00,
2013-03-20 04:33:00,31.0,24.0,30.06,SE,130,0.0,2.0,76,0.00,,,0.00,,2013-03-20 09:33:00,
2013-03-20 04:43:00,31.0,24.0,30.06,SE,130,0.0,2.0,76,0.00,,,0.00,,2013-03-20 09:43:00,
2013-03-20 04:53:00,29.0,23.0,30.06,SE,130,0.0,3.0,79,0.00,,,0.00,,2013-03-20 09:53:00,
2013-03-20 05:03:00,29.0,23.0,30.06,SE,130,0.0,3.0,79,0.00,,,0.00,,2013-03-20 10:03:00,
2013-03-20 05:12:00,29.0,23.0,30.06,SE,130,0.0,3.0,79,0.00,,,0.00,,2013-03-20 10:12:00,
2013-03-20 05:23:00,29.0,25.0,30.06,SE,130,0.0,3.0,84,0.00,,,0.00,,2013-03-20 10:23:00,
2013-03-20 05:32:00,29.0,25.0,30.06,SE,130,0.0,3.0,84,0.00,,,0.00,,2013-03-20 10:32:00,
2013-03-20 05:43:00,29.0,25.0,30.06,SE,130,0.0,3.0,84,0.00,,,0.00,,2013-03-20 10:43:00,
2013-03-20 05:53:00,29.0,25.0,30.06,SE,130,0.0,3.0,84,0.00,,,0.00,,2013-03-20 10:53:00,
2013-03-20 06:03:00,29.0,25.0,30.06,SE,130,0.0,3.0,84,0.00,,,0.00,,2013-03-20 11:03:00,
2013-03-20 06:22:00,31.0,28.0,30.04,SE,130,0.0,2.0,87,0.00,,,0.00,,2013-03-20 11:22:00,
2013-03-20 06:32:00,31.0,28.0,30.04,SE,130,0.0,2.0,87,0.00,,,0.00,,2013-03-20 11:32:00,
2013-03-20 06:42:00,31.0,28.0,30.04,SE,130,0.0,2.0,87,0.00,,,0.00,,2013-03-20 11:42:00,
2013-03-20 06:52:00,31.0,28.0,30.04,SE,130,0.0,2.0,87,0.00,,,0.00,,2013-03-20 11:52:00,
2013-03-20 07:02:00,31.0,28.0,30.04,SE,130,0.0,2.0,87,0.00,,,0.00,,2013-03-20 12:02:00,
2013-03-20 07:22:00,33.0,29.0,30.07,SE,130,0.0,3.0,84,0.00,,,0.00,,2013-03-20 12:22:00,
2013-03-20 07:33:00,33.0,29.0,30.07,SE,130,0.0,3.0,84,0.00,,,0.00,,2013-03-20 12:33:00,
2013-03-20 07:43:00,33.0,29.0,30.07,SE,130,0.0,3.0,84,0.00,,,0.00,,2013-03-20 12:43:00,
2013-03-20 07:52:00,33.0,29.0,30.07,SE,130,0.0,3.0,84,0.00,,,0.00,,2013-03-20 12:52:00,
2013-03-20 08:03:00,33.0,29.0,30.07,SE,130,0.0,3.0,84,0.00,,,0.00,,2013-03-20 13:03:00,
2013-03-20 08:32:00,31.0,28.0,30.13,SE,130,1.0,2.0,88,0.00,,,0.00,,2013-03-20 13:32:00,
2013-03-20 08:43:00,31.0,28.0,30.13,SE,130,1.0,2.0,88,0.00,,,0.00,,2013-03-20 13:43:00,
2013-03-20 08:53:00,31.0,28.0,30.13,SE,130,1.0,2.0,88,0.00,,,0.00,,2013-03-20 13:53:00,
2013-03-20 09:03:00,36.0,34.0,30.12,East,95,3.0,6.0,91,0.00,,,0.00,,2013-03-20 14:03:00,
2013-03-20 09:12:00,36.0,34.0,30.12,East,95,3.0,6.0,91,0.00,,,0.00,,2013-03-20 14:12:00,
2013-03-20 09:23:00,36.0,34.0,30.12,East,95,3.0,6.0,91,0.00,,,0.00,,2013-03-20 14:23:00,
2013-03-20 09:33:00,36.0,34.0,30.12,East,95,3.0,6.0,91,0.00,,,0.00,,2013-03-20 14:33:00,
2013-03-20 11:33:00,49.0,37.0,30.12,NE,55,3.0,9.0,62,0.00,,,0.00,,2013-03-20 16:33:00,
2013-03-20 11:43:00,49.0,37.0,30.12,NE,55,3.0,9.0,62,0.00,,,0.00,,2013-03-20 16:43:00,
2013-03-20 11:53:00,49.0,37.0,30.12,NE,55,3.0,9.0,62,0.00,,,0.00,,2013-03-20 16:53:00,
2013-03-20 12:03:00,49.0,37.0,30.12,NE,55,3.0,9.0,62,0.00,,,0.00,,2013-03-20 17:03:00,
2013-03-20 12:33:00,50.0,37.0,30.09,South,175,5.0,20.0,61,0.00,,,0.00,,2013-03-20 17:33:00,
2013-03-20 12:42:00,50.0,37.0,30.09,South,175,5.0,20.0,61,0.00,,,0.00,,2013-03-20 17:42:00,
2013-03-20 12:53:00,50.0,37.0,30.09,South,175,5.0,20.0,61,0.00,,,0.00,,2013-03-20 17:53:00,
2013-03-20 13:02:00,51.0,37.0,30.10,East,97,8.0,18.0,58,0.00,,,0.00,,2013-03-20 18:02:00,
2013-03-20 13:12:00,51.0,37.0,30.10,East,97,8.0,18.0,58,0.00,,,0.00,,2013-03-20 18:12:00,
2013-03-20 13:22:00,51.0,37.0,30.10,East,97,8.0,18.0,58,0.00,,,0.00,,2013-03-20 18:22:00,
2013-03-20 13:33:00,51.0,36.0,30.09,SSE,167,10.0,20.0,57,0.00,,,0.00,,2013-03-20 18:33:00,
2013-03-20 13:43:00,51.0,36.0,30.09,SSE,167,10.0,20.0,57,0.00,,,0.00,,2013-03-20 18:43:00,
2013-03-20 13:53:00,51.0,36.0,30.09,SSE,167,10.0,20.0,57,0.00,,,0.00,,2013-03-20 18:53:00,
2013-03-20 14:02:00,52.0,36.0,30.10,ESE,112,6.0,16.0,54,0.00,,,0.00,,2013-03-20 19:02:00,
2013-03-20 14:12:00,52.0,36.0,30.10,ESE,112,6.0,16.0,54,0.00,,,0.00,,2013-03-20 19:12:00,
2013-03-20 14:22:00,52.0,36.0,30.10,ESE,112,6.0,16.0,54,0.00,,,0.00,,2013-03-20 19:22:00,
2013-03-20 14:32:00,54.0,35.0,30.08,ESE,117,6.0,17.0,49,0.00,,,0.00,,2013-03-20 19:32:00,
2013-03-20 14:42:00,54.0,35.0,30.08,ESE,117,6.0,17.0,49,0.00,,,0.00,,2013-03-20 19:42:00,
2013-03-20 14:53:00,54.0,35.0,30.08,ESE,117,6.0,17.0,49,0.00,,,0.00,,2013-03-20 19:53:00,
2013-03-20 15:02:00,56.0,34.0,30.08,ESE,114,5.0,14.0,44,0.00,,,0.00,,2013-03-20 20:02:00,
2013-03-20 15:13:00,56.0,34.0,30.08,ESE,114,5.0,14.0,44,0.00,,,0.00,,2013-03-20 20:13:00,
2013-03-20 15:22:00,56.0,34.0,30.08,ESE,114,5.0,14.0,44,0.00,,,0.00,,2013-03-20 20:22:00,
2013-03-20 15:32:00,58.0,34.0,30.05,SSE,155,4.0,17.0,41,0.00,,,0.00,,2013-03-20 20:32:00,
2013-03-20 15:43:00,58.0,34.0,30.05,SSE,155,4.0,17.0,41,0.00,,,0.00,,2013-03-20 20:43:00,
2013-03-20 15:53:00,58.0,34.0,30.05,SSE,155,4.0,17.0,41,0.00,,,0.00,,2013-03-20 20:53:00,
2013-03-20 16:02:00,58.0,33.0,30.06,SE,133,4.0,13.0,38,0.00,,,0.00,,2013-03-20 21:02:00,
2013-03-20 16:12:00,58.0,33.0,30.06,SE,133,4.0,13.0,38,0.00,,,0.00,,2013-03-20 21:12:00,
2013-03-20 16:22:00,58.0,33.0,30.06,SE,133,4.0,13.0,38,0.00,,,0.00,,2013-03-20 21:22:00,
2013-03-20 16:33:00,58.0,33.0,30.06,SE,133,4.0,13.0,38,0.00,,,0.00,,2013-03-20 21:33:00,
2013-03-20 17:03:00,62.0,32.0,30.00,WSW,253,7.0,15.0,32,0.00,,,0.00,,2013-03-20 22:03:00,
2013-03-20 17:12:00,62.0,32.0,30.00,WSW,253,7.0,15.0,32,0.00,,,0.00,,2013-03-20 22:12:00,
2013-03-20 17:23:00,62.0,32.0,30.00,WSW,253,7.0,15.0,32,0.00,,,0.00,,2013-03-20 22:23:00,
2013-03-20 17:33:00,60.0,34.0,29.99,SE,144,3.0,13.0,37,0.00,,,0.00,,2013-03-20 22:33:00,
2013-03-20 17:43:00,60.0,34.0,29.99,SE,144,3.0,13.0,37,0.00,,,0.00,,2013-03-20 22:43:00,
2013-03-20 17:53:00,60.0,34.0,29.99,SE,144,3.0,13.0,37,0.00,,,0.00,,2013-03-20 22:53:00,
2013-03-20 18:02:00,62.0,33.0,29.95,SW,219,2.0,16.0,34,0.00,,,0.00,,2013-03-20 23:02:00,
2013-03-20 18:12:00,62.0,33.0,29.95,SW,219,2.0,16.0,34,0.00,,,0.00,,2013-03-20 23:12:00,
2013-03-20 18:22:00,62.0,33.0,29.95,SW,219,2.0,16.0,34,0.00,,,0.00,,2013-03-20 23:22:00,
2013-03-20 18:32:00,62.0,34.0,29.94,SW,221,2.0,13.0,35,0.00,,,0.00,,2013-03-20 23:32:00,
2013-03-20 18:43:00,62.0,34.0,29.94,SW,221,2.0,13.0,35,0.00,,,0.00,,2013-03-20 23:43:00,
2013-03-20 18:53:00,62.0,34.0,29.94,SW,221,2.0,13.0,35,0.00,,,0.00,,2013-03-20 23:53:00,
2013-03-20 19:02:00,62.0,33.0,29.94,SW,219,0.0,12.0,34,0.00,,,0.00,,2013-03-21 00:02:00,
2013-03-20 19:12:00,62.0,33.0,29.94,SW,219,0.0,12.0,34,0.00,,,0.00,,2013-03-21 00:12:00,
2013-03-20 19:23:00,62.0,33.0,29.94,SW,219,0.0,12.0,34,0.00,,,0.00,,2013-03-21 00:23:00,
2013-03-20 19:32:00,60.0,35.0,29.94,SE,127,3.0,13.0,39,0.00,,,0.00,,2013-03-21 00:32:00,
2013-03-20 19:42:00,60.0,35.0,29.94,SE,127,3.0,13.0,39,0.00,,,0.00,,2013-03-21 00:42:00,
2013-03-20 19:52:00,60.0,35.0,29.94,SE,127,3.0,13.0,39,0.00,,,0.00,,2013-03-21 00:52:00,
2013-03-20 20:02:00,59.0,37.0,29.93,South,176,2.0,10.0,44,0.00,,,0.00,,2013-03-21 01:02:00,
2013-03-20 20:12:00,59.0,37.0,29.93,South,176,2.0,10.0,44,0.00,,,0.00,,2013-03-21 01:12:00,
2013-03-20 20:22:00,59.0,37.0,29.93,South,176,2.0,10.0,44,0.00,,,0.00,,2013-03-21 01:22:00,
2013-03-20 20:32:00,57.0,37.0,29.93,SSE,168,3.0,8.0,47,0.00,,,0.00,,2013-03-21 01:32:00,
2013-03-20 20:42:00,57.0,37.0,29.93,SSE,168,3.0,8.0,47,0.00,,,0.00,,2013-03-21 01:42:00,
2013-03-20 20:53:00,57.0,37.0,29.93,SSE,168,3.0,8.0,47,0.00,,,0.00,,2013-03-21 01:53:00,
2013-03-20 21:02:00,57.0,36.0,29.89,SSE,153,2.0,12.0,46,0.00,,,0.00,,2013-03-21 02:02:00,
2013-03-20 21:12:00,57.0,36.0,29.89,SSE,153,2.0,12.0,46,0.00,,,0.00,,2013-03-21 02:12:00,
2013-03-20 21:22:00,57.0,36.0,29.89,SSE,153,2.0,12.0,46,0.00,,,0.00,,2013-03-21 02:22:00,
2013-03-20 21:32:00,56.0,37.0,29.90,SW,215,1.0,10.0,49,0.00,,,0.00,,2013-03-21 02:32:00,
2013-03-20 21:42:00,56.0,37.0,29.90,SW,215,1.0,10.0,49,0.00,,,0.00,,2013-03-21 02:42:00,
2013-03-20 21:52:00,56.0,37.0,29.90,SW,215,1.0,10.0,49,0.00,,,0.00,,2013-03-21 02:52:00,
2013-03-20 22:02:00,56.0,37.0,29.90,SW,215,1.0,10.0,49,0.00,,,0.00,,2013-03-21 03:02:00,
2013-03-20 22:33:00,48.0,35.0,29.91,SW,229,1.0,3.0,60,0.00,,,0.00,,2013-03-21 03:33:00,
2013-03-20 22:43:00,48.0,35.0,29.91,SW,229,1.0,3.0,60,0.00,,,0.00,,2013-03-21 03:43:00,
2013-03-20 22:53:00,48.0,35.0,29.91,SW,229,1.0,3.0,60,0.00,,,0.00,,2013-03-21 03:53:00,
2013-03-20 23:03:00,44.0,34.0,29.90,SW,229,1.0,3.0,67,0.00,,,0.00,,2013-03-21 04:03:00,
2013-03-20 23:13:00,44.0,34.0,29.90,SW,229,1.0,3.0,67,0.00,,,0.00,,2013-03-21 04:13:00,
2013-03-20 23:23:00,44.0,34.0,29.90,SW,229,1.0,3.0,67,0.00,,,0.00,,2013-03-21 04:23:00,
2013-03-20 23:33:00,42.0,33.0,29.91,SW,229,0.0,3.0,69,0.00,,,0.00,,2013-03-21 04:33:00,
2013-03-20 23:43:00,42.0,33.0,29.91,SW,229,0.0,3.0,69,0.00,,,0.00,,2013-03-21 04:43:00,
2013-03-20 23:53:00,42.0,33.0,29.91,SW,229,0.0,3.0,69,0.00,,,0.00,,2013-03-21 04:53:00,